Location: Waco, TX
(31.5480°N, 97.1670°W)
Time: 13:25:35

ISS - Pass Details

Date: 13 March 2018
Orbit: 403 x 406 km, 51.6° (Epoch: 18 March)

Event Time Altitude Azimuth Distance (km) Brightness Sun altitude
Rises 07:56:38 0° 331° (NNW) 2,322 -0.3 2.5°
Reaches altitude 10° 07:59:16 10° 353° (N) 1,459 -1.1 3.0°
Maximum altitude 08:01:27 16° 35° (NE) 1,130 -1.1 3.5°
Drops below altitude 10° 08:03:37 10° 77° (ENE) 1,454 0.7 3.9°
Sets 08:06:14 0° 99° (E) 2,310 3.0 4.5°
